[Date Prev][Date Next][Thread Prev][Thread Next] - [Date Index][Thread Index][Author Index]

2 Line ISS Keps 1-27



ISS
1 25544U 98067A   04027.22393875  .00026494  00000-0  25305-3 0   794
2 25544  51.6307 328.3283 0007792  93.3187  59.6186 15.66512108296040



----
Via the sarex mailing list at AMSAT.ORG courtesy of AMSAT-NA.
To unsubscribe, send "unsubscribe sarex" to Majordomo@amsat.org



AMSAT Top AMSAT Home